Location: Alpha Ridge Park
(39.3209°N, 76.9128°W)
Time: 14:51:25
(UTC-04:00)

Transit 2A - Pass Details

Date: 23 May 2019
Orbit: 593 x 966 km, 66.7° (Epoch: 24 June)

Event Time Altitude Azimuth Distance (km) Brightness Sun altitude
Rises 16:55:38 0° 335° (NNW) 3,559 9.7 37.5°
Reaches altitude 10° 16:58:22 10° 341° (NNW) 2,568 9.0 37.0°
Maximum altitude 17:04:05 47° 55° (NE) 1,097 6.9 35.9°
Drops below altitude 10° 17:09:15 10° 129° (SE) 2,317 8.2 34.9°
Sets 17:11:36 0° 135° (SE) 3,180 8.9 34.5°
